EW5925 Weather Reports


Display with metric or nautical units.
time (UTC)temp
F
wind
direction
speed
MPH
gust
MPH
rain 1hr
in
rain 24hr
in
rain mn
in
humidity
%
barometer
mb
20220926023926 82 32 2.0 9.0 0.00 0.00 0.00 50 1014.5
20220926023426 82 0 4.0 9.0 0.00 0.00 0.00 49 1014.5
20220926023152 81 35 4.0 9.0 0.00 0.00 0.00 42 1014.7
20220926022426 81 320 4.0 10.0 0.00 0.00 0.00 48 1014.9
20220926022421 82 345 4.0 9.0 0.00 0.00 0.00 41 1014.9
20220926021704 81 318 4.0 11.0 0.00 0.00 0.00 41 1015.0
20220926020856 81 3 3.0 11.0 0.00 0.00 0.00 37 1015.1
20220926020411 80 44 4.0 11.0 0.00 0.00 0.00 44 1015.0
20220926015830 81 38 3.0 11.0 0.00 0.00 0.00 45 1015.1
20220926015329 82 317 2.0 9.0 0.00 0.00 0.00 46 1015.2
20220926014826 81 342 4.0 11.0 0.00 0.00 0.00 46 1015.3
20220926014326 81 335 3.0 11.0 0.00 0.00 0.00 45 1015.3
20220926013826 81 339 3.0 9.0 0.00 0.00 0.00 49 1015.5
20220926013332 79 328 2.0 8.0 0.00 0.00 0.00 51 1015.7
20220926013327 80 26 3.0 9.0 0.00 0.00 0.00 52 1015.5
20220926012325 80 5 2.0 8.0 0.00 0.00 0.00 51 1015.8
20220926011824 80 351 2.0 8.0 0.00 0.00 0.00 51 1015.9
20220926011322 80 1 3.0 8.0 0.00 0.00 0.00 52 1015.9
20220926011052 79 303 1.0 8.0 0.00 0.00 0.00 54 1016.0
20220926010318 79 351 1.0 8.0 0.00 0.00 0.00 55 1016.2
20220926010047 78 306 2.0 8.0 0.00 0.00 0.00 53 1016.3
20220926005315 79 17 3.0 8.0 0.00 0.00 0.00 58 1016.6
20220926005310 79 326 2.0 8.0 0.00 0.00 0.00 52 1016.5
20220926004307 79 348 3.0 9.0 0.00 0.00 0.00 56 1016.7
20220926003807 78 324 3.0 9.0 0.00 0.00 0.00 57 1016.8
20220926003245 78 306 4.0 9.0 0.00 0.00 0.00 56 1016.8
20220926002745 78 327 3.0 9.0 0.00 0.00 0.00 57 1017.0
20220926002514 78 262 2.0 7.0 0.00 0.00 0.00 58 1017.0
20220926002013 78 332 2.0 7.0 0.00 0.00 0.00 60 1017.0
20220926001512 77 357 2.0 7.0 0.00 0.00 0.00 58 1017.0
20220926000737 77 284 3.0 7.0 0.00 0.00 0.00 61 1017.0
20220926000247 77 357 2.0 7.0 0.00 0.00 0.00 59 1017.1
20220925235734 77 358 2.0 8.0 0.00 0.00 0.00 62 1017.1
20220925235230 75 308 4.0 8.0 0.00 0.00 0.00 64 1017.2
20220925234735 75 314 3.0 8.0 0.00 0.00 0.00 65 1017.3
20220925234731 75 315 3.0 8.0 0.00 0.00 0.00 64 1017.3
20220925233724 75 330 3.0 8.0 0.00 0.00 0.00 67 1017.3
20220925233224 75 344 2.0 8.0 0.00 0.00 0.00 68 1017.3
20220925232954 75 316 1.0 5.0 0.00 0.00 0.00 69 1017.4
20220925232154 75 312 1.0 6.0 0.00 0.00 0.00 69 1017.4
20220925231856 74 306 1.0 6.0 0.00 0.00 0.00 69 1017.5
20220925231058 75 318 1.0 6.0 0.00 0.00 0.00 71 1017.5
20220925230530 74 226 1.0 6.0 0.00 0.00 0.00 72 1017.6
20220925230234 74 312 0.0 4.0 0.00 0.00 0.00 73 1017.7
20220925225435 74 328 0.0 0.0 0.00 0.00 0.00 73 1017.6
20220925224907 73 308 0.0 0.0 0.00 0.00 0.00 75 1017.6
20220925224342 72 312 0.0 0.0 0.00 0.00 0.00 75 1017.6
20220925223815 72 217 0.0 0.0 0.00 0.00 0.00 75 1017.6
20220925223750 72 220 0.0 0.0 0.00 0.00 0.00 74 1017.7
20220925222722 72 287 0.0 0.0 0.00 0.00 0.00 77 1017.6
20220925222701 71 299 0.0 0.0 0.00 0.00 0.00 79 1017.6
20220925221633 69 231 0.0 0.0 0.00 0.00 0.00 80 1017.6
20220925221107 69 233 0.0 0.0 0.00 0.00 0.00 80 1017.7
20220925220810 68 223 0.0 0.0 0.00 0.00 0.00 82 1017.7
20220925220012 68 229 0.0 5.0 0.00 0.00 0.00 82 1017.7
20220925215447 67 220 0.0 5.0 0.00 0.00 0.00 83 1017.7
20220925214922 67 230 1.0 5.0 0.00 0.00 0.00 86 1017.7
20220925214352 66 196 0.0 5.0 0.00 0.00 0.00 87 1017.7
20220925213852 65 240 0.0 4.0 0.00 0.00 0.00 90 1017.8
20220925213257 64 242 0.0 4.0 0.00 0.00 0.00 91 1017.8
20220925213003 63 256 0.0 3.0 0.00 0.00 0.00 93 1017.7
20220925212438 62 230 0.0 2.0 0.00 0.00 0.00 95 1017.7
20220925211639 61 224 0.0 3.0 0.00 0.00 0.00 96 1017.7
20220925211112 59 198 0.0 3.0 0.00 0.00 0.00 95 1017.6
20220925210547 59 232 0.0 2.0 0.00 0.00 0.00 95 1017.6
20220925210256 59 232 0.0 2.0 0.00 0.00 0.00 95 1017.5
20220925205453 58 231 0.0 0.0 0.00 0.00 0.00 95 1017.4
20220925205215 58 232 0.0 0.0 0.00 0.00 0.00 95 1017.4
20220925204445 58 231 0.0 0.0 0.00 0.00 0.00 95 1017.4
20220925203917 57 231 0.0 0.0 0.00 0.00 0.00 94 1017.4
20220925203347 57 231 0.0 0.0 0.00 0.00 0.00 95 1017.3
20220925203056 57 231 0.0 0.0 0.00 0.00 0.00 94 1017.2
20220925202931 56 232 0.0 0.0 0.00 0.00 0.00 94 1017.1
20220925202053 56 231 0.0 0.0 0.00 0.00 0.00 94 1017.1
20220925201551 56 231 0.0 0.0 0.00 0.00 0.00 94 1017.0
20220925200816 55 231 0.0 0.0 0.00 0.00 0.00 93 1016.9
20220925200314 55 231 0.0 0.0 0.00 0.00 0.00 93 1016.9
20220925195812 55 231 0.0 0.0 0.00 0.00 0.00 93 1016.8
20220925195310 55 231 0.0 0.0 0.00 0.00 0.00 93 1016.8
20220925195040 55 231 0.0 0.0 0.00 0.00 0.00 93 1016.7
20220925194310 55 231 0.0 0.0 0.00 0.00 0.00 93 1016.7
20220925193809 56 231 0.0 0.0 0.00 0.00 0.00 93 1016.6
20220925193307 56 232 0.0 0.0 0.00 0.00 0.00 93 1016.7
20220925193038 56 231 0.0 0.0 0.00 0.00 0.00 93 1016.7
20220925192308 56 231 0.0 0.0 0.00 0.00 0.00 93 1016.7
20220925192013 56 231 0.0 0.0 0.00 0.00 0.00 93 1016.7
20220925191240 56 231 0.0 0.0 0.00 0.00 0.00 93 1016.6
20220925191009 56 231 0.0 0.0 0.00 0.00 0.00 93 1016.6
20220925190235 56 231 0.0 0.0 0.00 0.00 0.00 93 1016.7
20220925185730 56 231 0.0 0.0 0.00 0.00 0.00 93 1016.7
20220925185228 57 231 0.0 0.0 0.00 0.00 0.00 93 1016.6
20220925185000 57 231 0.0 0.0 0.00 0.00 0.00 93 1016.5
20220925184726 57 231 0.0 0.0 0.00 0.00 0.00 93 1016.6
20220925183723 57 232 0.0 0.0 0.00 0.00 0.00 93 1016.5
20220925183225 57 231 0.0 0.0 0.00 0.00 0.00 93 1016.5
20220925182729 57 231 0.0 4.0 0.00 0.00 0.00 94 1016.3
20220925182723 57 231 0.0 4.0 0.00 0.00 0.00 93 1016.5
20220925181721 57 231 0.0 4.0 0.00 0.00 0.00 94 1016.5
20220925181223 57 231 0.0 4.0 0.00 0.00 0.00 93 1016.3
20220925180937 57 126 0.0 0.0 0.00 0.00 0.00 93 1016.5
20220925180205 57 126 0.0 0.0 0.00 0.00 0.00 93 1016.3
20220925175704 56 126 0.0 0.0 0.00 0.00 0.00 93 1016.2
20220925175204 56 126 0.0 0.0 0.00 0.00 0.00 93 1016.2
20220925174937 56 126 0.0 0.0 0.00 0.00 0.00 93 1016.2
20220925174433 56 126 0.0 0.0 0.00 0.00 0.00 92 1016.2
20220925173934 56 126 0.0 0.0 0.00 0.00 0.00 92 1016.2
20220925173531 57 126 0.0 0.0 0.00 0.00 0.00 92 1016.2
20220925173424 57 126 0.0 0.0 0.00 0.00 0.00 92 1016.2
20220925172151 57 126 0.0 0.0 0.00 0.00 0.00 93 1016.3
20220925171651 57 126 0.0 0.0 0.00 0.00 0.00 93 1016.3
20220925171148 57 126 0.0 0.0 0.00 0.00 0.00 93 1016.5
20220925170644 57 126 0.0 0.0 0.00 0.00 0.00 92 1016.6
20220925170156 57 126 0.0 0.0 0.00 0.00 0.00 92 1016.6
20220925165642 57 126 0.0 0.0 0.00 0.00 0.00 92 1016.6
20220925165148 57 126 0.0 0.0 0.00 0.00 0.00 92 1016.6
20220925164910 57 126 0.0 0.0 0.00 0.00 0.00 92 1016.7
20220925164634 57 126 0.0 0.0 0.00 0.00 0.00 92 1016.7
20220925163629 57 126 0.0 0.0 0.00 0.00 0.00 92 1016.8
20220925163359 57 126 0.0 0.0 0.00 0.00 0.00 92 1016.7
20220925162626 58 126 0.0 0.0 0.00 0.00 0.00 92 1016.7
20220925162124 58 126 0.0 0.0 0.00 0.00 0.00 92 1016.7
20220925161622 58 126 0.0 0.0 0.00 0.00 0.00 92 1016.8
20220925161115 58 126 0.0 0.0 0.00 0.00 0.00 92 1016.7
20220925160613 58 126 0.0 0.0 0.00 0.00 0.00 92 1016.6
20220925160112 58 126 0.0 0.0 0.00 0.00 0.00 92 1016.5
20220925155841 58 126 0.0 0.0 0.00 0.00 0.00 92 1016.6
20220925155108 58 126 0.0 0.0 0.00 0.00 0.00 92 1016.6
20220925154610 58 126 0.0 0.0 0.00 0.00 0.00 92 1016.6
20220925154606 58 126 0.0 0.0 0.00 0.00 0.00 92 1016.6
20220925153812 58 126 0.0 0.0 0.00 0.00 0.00 92 1016.7
20220925153308 58 126 0.0 0.0 0.00 0.00 0.00 92 1016.6
20220925152536 58 126 0.0 0.0 0.00 0.00 0.00 92 1016.7
20220925152034 58 126 0.0 0.0 0.00 0.00 0.00 91 1016.6
20220925151759 58 126 0.0 0.0 0.00 0.00 0.00 91 1016.7
20220925151025 58 126 0.0 0.0 0.00 0.00 0.00 91 1016.7
20220925150533 59 126 0.0 0.0 0.00 0.00 0.00 91 1016.7
20220925150026 59 126 0.0 0.0 0.00 0.00 0.00 91 1016.8
20220925150022 59 126 0.0 0.0 0.00 0.00 0.00 91 1016.7
20220925145017 59 126 0.0 0.0 0.00 0.00 0.00 91 1016.8
20220925144516 59 126 0.0 0.0 0.00 0.00 0.00 91 1016.8
20220925144249 59 126 0.0 0.0 0.00 0.00 0.00 91 1016.8
20220925144014 59 126 0.0 0.0 0.00 0.00 0.00 91 1016.9
20220925143007 59 126 0.0 0.0 0.00 0.00 0.00 91 1016.8
20220925142505 60 126 0.0 0.0 0.00 0.00 0.00 91 1016.8
20220925142005 60 126 0.0 0.0 0.00 0.00 0.00 91 1016.8
20220925141705 60 126 0.0 0.0 0.00 0.00 0.00 91 1016.8
20220925141419 60 126 0.0 0.0 0.00 0.00 0.00 91 1016.8
20220925140431 60 126 0.0 0.0 0.00 0.00 0.00 91 1016.9
20220925135916 60 126 0.0 0.0 0.00 0.00 0.00 91 1016.9
20220925135415 60 126 0.0 0.0 0.00 0.00 0.00 91 1017.0
20220925135147 60 126 0.0 0.0 0.00 0.00 0.00 91 1017.0
20220925134414 60 126 0.0 0.0 0.00 0.00 0.00 91 1017.0
20220925134142 60 126 0.0 0.0 0.00 0.00 0.00 91 1017.0
20220925133410 60 126 0.0 0.0 0.00 0.00 0.00 91 1017.1
20220925133138 60 126 0.0 0.0 0.00 0.00 0.00 91 1017.1
20220925132407 60 126 0.0 0.0 0.00 0.00 0.00 90 1017.1
20220925131908 60 126 0.0 0.0 0.00 0.00 0.00 90 1017.1
20220925131404 60 126 0.0 0.0 0.00 0.00 0.00 90 1017.2
20220925131132 60 126 0.0 0.0 0.00 0.00 0.00 90 1017.1
20220925131007 60 126 0.0 0.0 0.00 0.00 0.00 90 1017.1
20220925125900 60 126 0.0 0.0 0.00 0.00 0.00 90 1017.0
20220925125352 60 126 0.0 2.0 0.00 0.00 0.00 89 1017.0
20220925124852 61 126 0.0 2.0 0.00 0.00 0.00 89 1017.1
20220925124352 61 126 0.0 2.0 0.00 0.00 0.00 89 1017.0
20220925124121 61 126 0.0 2.0 0.00 0.00 0.00 88 1017.0
20220925123955 61 126 0.0 0.0 0.00 0.00 0.00 88 1017.0
20220925123348 61 126 0.0 0.0 0.00 0.00 0.00 88 1017.0
20220925122343 61 126 0.0 0.0 0.00 0.00 0.00 88 1016.9
20220925121843 61 126 0.0 0.0 0.00 0.00 0.00 88 1016.9
20220925121344 62 126 0.0 0.0 0.00 0.00 0.00 88 1017.0
20220925120841 62 126 0.0 0.0 0.00 0.00 0.00 88 1017.0
20220925120837 62 126 0.0 0.0 0.00 0.00 0.00 88 1016.9
20220925115833 62 126 0.0 0.0 0.00 0.00 0.00 88 1017.0
20220925115334 62 126 0.0 0.0 0.00 0.00 0.00 88 1017.0
20220925114808 62 126 0.0 0.0 0.00 0.00 0.00 87 1017.0
20220925114305 62 126 0.0 0.0 0.00 0.00 0.00 87 1017.0
20220925113805 62 126 0.0 0.0 0.00 0.00 0.00 87 1017.0
20220925113537 62 126 0.0 0.0 0.00 0.00 0.00 86 1017.0
20220925112803 62 126 0.0 0.0 0.00 0.00 0.00 86 1016.9
20220925112301 63 126 0.0 0.0 0.00 0.00 0.00 86 1017.0
20220925111759 63 126 0.0 0.0 0.00 0.00 0.00 85 1017.0
20220925111257 63 126 0.0 0.0 0.00 0.00 0.00 85 1017.0
20220925111026 63 126 0.0 0.0 0.00 0.00 0.00 85 1017.0
20220925110536 63 126 0.0 0.0 0.00 0.00 0.00 84 1017.1
20220925110125 64 126 0.0 0.0 0.00 0.00 0.00 83 1017.0
20220925105749 63 126 0.0 0.0 0.00 0.00 0.00 84 1017.0
20220925105517 64 126 0.0 0.0 0.00 0.00 0.00 84 1017.0
20220925104517 64 126 0.0 0.0 0.00 0.00 0.00 82 1017.0
20220925103716 64 126 0.0 0.0 0.00 0.00 0.00 82 1017.0
20220925103149 64 126 0.0 0.0 0.00 0.00 0.00 81 1016.9
20220925102647 64 126 0.0 0.0 0.00 0.00 0.00 81 1016.9
20220925102146 65 126 0.0 0.0 0.00 0.00 0.00 81 1016.8
20220925101644 65 126 0.0 0.0 0.00 0.00 0.00 81 1016.8
20220925101141 65 126 0.0 0.0 0.00 0.00 0.00 80 1016.7
20220925100642 65 126 0.0 0.0 0.00 0.00 0.00 80 1016.5
20220925100421 65 126 0.0 0.0 0.00 0.00 0.00 80 1016.5
20220925095637 65 126 0.0 0.0 0.00 0.00 0.00 79 1016.2
20220925095137 66 126 0.0 0.0 0.00 0.00 0.00 80 1016.3
20220925094636 66 126 0.0 0.0 0.00 0.00 0.00 79 1016.3
20220925094129 66 126 0.0 0.0 0.00 0.00 0.00 79 1016.2
20220925093901 66 126 0.0 0.0 0.00 0.00 0.00 79 1016.0
20220925093125 66 126 0.0 0.0 0.00 0.00 0.00 79 1015.9
20220925092623 66 126 0.0 0.0 0.00 0.00 0.00 79 1015.9
20220925092354 67 126 0.0 0.0 0.00 0.00 0.00 79 1015.8
20220925091629 67 126 0.0 0.0 0.00 0.00 0.00 79 1015.6
20220925091623 67 126 0.0 0.0 0.00 0.00 0.00 79 1015.7
20220925090625 67 126 0.0 0.0 0.00 0.00 0.00 77 1015.4
20220925090331 67 126 0.0 0.0 0.00 0.00 0.00 77 1015.4
20220925085806 67 126 0.0 0.0 0.00 0.00 0.00 78 1015.4
20220925085005 67 126 0.0 0.0 0.00 0.00 0.00 77 1015.3
20220925084708 68 126 0.0 0.0 0.00 0.00 0.00 77 1015.2
20220925083911 68 126 0.0 0.0 0.00 0.00 0.00 76 1015.1
20220925083346 68 126 0.0 0.0 0.00 0.00 0.00 75 1015.1
20220925082822 68 126 0.0 0.0 0.00 0.00 0.00 74 1014.9
20220925082255 69 126 0.0 2.0 0.00 0.00 0.00 73 1014.9
20220925081727 69 126 0.0 2.0 0.00 0.00 0.00 71 1014.8
20220925081201 69 126 0.0 3.0 0.00 0.00 0.00 71 1014.8
20220925080637 69 126 0.0 3.0 0.00 0.00 0.00 70 1014.7
20220925075809 70 127 0.0 4.0 0.00 0.00 0.00 66 1014.6
20220925075648 70 127 0.0 3.0 0.00 0.00 0.00 67 1014.7
20220925075143 70 127 0.0 4.0 0.00 0.00 0.00 66 1014.6
20220925074635 70 127 0.0 4.0 0.00 0.00 0.00 65 1014.5
20220925073457 71 127 0.0 4.0 0.00 0.00 0.00 64 1014.5
20220925072932 71 127 0.0 3.0 0.00 0.00 0.00 63 1014.5
20220925072408 71 127 0.0 3.0 0.00 0.00 0.00 63 1014.4
20220925072131 71 127 1.0 7.0 0.00 0.00 0.00 62 1014.3
20220925071400 71 129 1.0 7.0 0.00 0.00 0.00 62 1014.3
20220925070836 72 112 1.0 7.0 0.00 0.00 0.00 61 1014.1
20220925070310 72 116 2.0 7.0 0.00 0.00 0.00 60 1014.1
20220925065811 73 87 2.0 7.0 0.00 0.00 0.00 59 1014.0
20220925065311 73 114 1.0 5.0 0.00 0.00 0.00 59 1013.9
20220925064810 73 120 1.0 5.0 0.00 0.00 0.00 59 1013.9
20220925064310 73 122 1.0 7.0 0.00 0.00 0.00 58 1013.8
20220925064034 73 116 2.0 7.0 0.00 0.00 0.00 57 1013.8
20220925063302 74 108 1.0 7.0 0.00 0.00 0.00 55 1013.6
20220925062803 74 117 1.0 7.0 0.00 0.00 0.00 54 1013.6
20220925062534 74 115 1.0 7.0 0.00 0.00 0.00 53 1013.6
20220925061801 75 106 1.0 8.0 0.00 0.00 0.00 53 1013.6
20220925061533 75 122 2.0 8.0 0.00 0.00 0.00 52 1013.5
20220925060805 76 114 2.0 8.0 0.00 0.00 0.00 50 1013.4
20220925060801 76 97 3.0 8.0 0.00 0.00 0.00 51 1013.4
20220925055801 77 113 2.0 10.0 0.00 0.00 0.00 51 1013.4
20220925055300 77 116 2.0 10.0 0.00 0.00 0.00 51 1013.3
20220925054801 77 138 2.0 10.0 0.00 0.00 0.00 51 1013.2
20220925054300 77 106 2.0 10.0 0.00 0.00 0.00 51 1013.2
20220925053801 78 104 2.0 10.0 0.00 0.00 0.00 51 1013.2
20220925053301 77 111 2.0 10.0 0.00 0.00 0.00 50 1013.1
20220925052801 78 110 2.0 10.0 0.00 0.00 0.00 49 1013.1
20220925052259 78 81 2.0 10.0 0.00 0.00 0.00 49 1013.0
20220925052236 78 120 2.0 10.0 0.00 0.00 0.00 51 1013.0
20220925051842 78 113 3.0 10.0 0.00 0.00 0.00 50 1013.0
20220925050733 79 110 2.0 10.0 0.00 0.00 0.00 49 1013.0
20220925050505 80 104 1.0 10.0 0.00 0.00 0.00 49 1013.0
20220925045733 79 97 2.0 10.0 0.00 0.00 0.00 49 1013.0
20220925045231 79 22 2.0 10.0 0.00 0.00 0.00 52 1013.0
20220925044731 79 71 2.0 10.0 0.00 0.00 0.00 50 1013.1
20220925044234 79 118 2.0 10.0 0.00 0.00 0.00 49 1013.1
20220925044230 79 105 3.0 10.0 0.00 0.00 0.00 50 1013.1
20220925043223 80 133 1.0 8.0 0.00 0.00 0.00 50 1013.2
20220925042721 80 39 1.0 8.0 0.00 0.00 0.00 52 1013.3
20220925042447 80 22 2.0 9.0 0.00 0.00 0.00 52 1013.3
20220925041714 79 41 2.0 9.0 0.00 0.00 0.00 51 1013.4
20220925041444 80 31 1.0 9.0 0.00 0.00 0.00 51 1013.3
20220925040947 80 19 2.0 9.0 0.00 0.00 0.00 52 1013.5
20220925040146 79 73 2.0 9.0 0.00 0.00 0.00 52 1013.5
20220925035937 80 40 2.0 11.0 0.00 0.00 0.00 52 1013.6
20220925035143 79 48 2.0 11.0 0.00 0.00 0.00 51 1013.6
20220925034642 80 99 2.0 11.0 0.00 0.00 0.00 50 1013.7
20220925034142 80 52 1.0 10.0 0.00 0.00 0.00 51 1013.7
20220925033647 78 358 2.0 8.0 0.00 0.00 0.00 50 1013.8
20220925033642 79 53 1.0 8.0 0.00 0.00 0.00 48 1013.7
20220925032639 77 122 2.0 8.0 0.00 0.00 0.00 54 1013.9
20220925032409 78 123 2.0 8.0 0.00 0.00 0.00 50 1013.9
20220925031639 77 115 2.0 9.0 0.00 0.00 0.00 53 1014.0
20220925031137 77 110 2.0 9.0 0.00 0.00 0.00 51 1014.2
20220925030907 79 111 3.0 9.0 0.00 0.00 0.00 47 1014.3
20220925030138 79 114 4.0 14.0 0.00 0.00 0.00 49 1014.4
20220925025634 79 106 4.0 14.0 0.00 0.00 0.00 46 1014.4
20220925025136 80 116 4.0 14.0 0.00 0.00 0.00 46 1014.5
20220925024628 80 145 3.0 14.0 0.00 0.00 0.00 46 1014.5